Location: Burla
(50.9568°N, 10.4983°E)
Time: 20:35:01
(UTC+00:00)

Cosmos 1500 Rocket - Pass Details

Date: 18 January 2026
Orbit: 597 x 623 km, 82.5° (Epoch: 14 February)

Event Time Altitude Azimuth Distance (km) Brightness Sun altitude
Rises 05:18:42 0° 211° (SSW) 2,861 6.8 -17.3°
Reaches altitude 10° 05:21:02 10° 219° (SW) 1,967 5.9 -16.9°
Maximum altitude 05:25:06 37° 288° (WNW) 958 4.0 -16.3°
Drops below altitude 10° 05:29:13 10° 356° (N) 1,996 6.0 -15.7°
Sets 05:31:36 0° 5° (N) 2,910 6.9 -15.3°
